User: anonymous   Login
Location: Slidell
(30.2789°N, 89.7378°W)
Time: 19:53:36
(UTC-05:00)
Language:

Cosmos 2360 Rocket - Orbit

View from above orbital plane
View from above orbital plane
View from above satellite
View from above satellite

Ground track
Ground track

The orbit data is extracted from the following two-line orbital elements,

1 25407U 98045B   17084.56663863 -.00000232 +00000-0 -93861-4 0  9997
2 25407 071.0112 217.1553 0008969 320.8353 039.2120 14.15756508964077
Epoch (UTC): 25 March 2017 13:35:57
Eccentricity: 0.0008969
inclination: 71.0112°
perigee height: 833 km
apogee height: 846 km
right ascension of ascending node: 217.1553°
argument of perigee: 320.8353°
revolutions per day: 14.15756508
mean anomaly at epoch: 39.2120°
orbit number at epoch: 96407

The dashed part of the orbit path shows where the satellite is in the earth's shadow,  

DLR